Year,Month,Day,Hour,Minute,Value (Times are PST for temperature in C)
2020,08,14,00,01,14.30
2020,08,14,00,02,14.30
2020,08,14,00,03,14.30
2020,08,14,00,04,14.30
2020,08,14,00,06,14.20
2020,08,14,00,07,14.20
2020,08,14,00,09,14.20
2020,08,14,00,11,14.20
2020,08,14,00,12,14.20
2020,08,14,00,13,14.20
2020,08,14,00,14,14.20
2020,08,14,00,16,14.20
2020,08,14,00,17,14.20
2020,08,14,00,18,14.20
2020,08,14,00,19,14.20
2020,08,14,00,21,14.20
2020,08,14,00,22,14.20
2020,08,14,00,23,14.20
2020,08,14,00,24,14.20
2020,08,14,00,26,14.10
2020,08,14,00,27,14.10
2020,08,14,00,28,14.10
2020,08,14,00,29,14.10
2020,08,14,00,30,14.10
2020,08,14,00,32,14.10
2020,08,14,00,33,14.10
2020,08,14,00,34,14.00
2020,08,14,00,36,14.00
2020,08,14,00,37,14.00
2020,08,14,00,38,14.00
2020,08,14,00,39,14.00
2020,08,14,00,40,14.00
2020,08,14,00,41,13.90
2020,08,14,00,42,13.90
2020,08,14,00,43,13.90
2020,08,14,00,44,13.90
2020,08,14,00,45,13.90
2020,08,14,00,46,13.90
2020,08,14,00,47,13.90
2020,08,14,00,48,13.90
2020,08,14,00,49,13.90
2020,08,14,00,50,13.90
2020,08,14,00,51,13.90
2020,08,14,00,52,13.90
2020,08,14,00,53,13.80
2020,08,14,00,54,13.80
2020,08,14,00,55,13.80
2020,08,14,00,56,13.90
2020,08,14,00,57,13.90
2020,08,14,00,58,13.90
2020,08,14,00,59,13.90
2020,08,14,01,00,13.90
2020,08,14,01,01,13.90
2020,08,14,01,02,13.90
2020,08,14,01,03,13.90
2020,08,14,01,04,13.90
2020,08,14,01,05,13.90
2020,08,14,01,06,13.90
2020,08,14,01,07,13.90
2020,08,14,01,08,13.90
2020,08,14,01,09,13.80
2020,08,14,01,10,13.80
2020,08,14,01,11,13.80
2020,08,14,01,12,13.80
2020,08,14,01,13,13.80
2020,08,14,01,14,13.80
2020,08,14,01,15,13.80
2020,08,14,01,16,13.80
2020,08,14,01,17,13.80
2020,08,14,01,18,13.80
2020,08,14,01,19,13.80
2020,08,14,01,20,13.80
2020,08,14,01,21,13.80
2020,08,14,01,22,13.80
2020,08,14,01,23,13.80
2020,08,14,01,24,13.80
2020,08,14,01,25,13.80
2020,08,14,01,26,13.80
2020,08,14,01,27,13.80
2020,08,14,01,28,13.80
2020,08,14,01,29,13.80
2020,08,14,01,30,13.80
2020,08,14,01,31,13.80
2020,08,14,01,32,13.80
2020,08,14,01,33,13.80
2020,08,14,01,34,13.80
2020,08,14,01,35,13.80
2020,08,14,01,36,13.80
2020,08,14,01,37,13.80
2020,08,14,01,38,13.80
2020,08,14,01,39,13.80
2020,08,14,01,40,13.80
2020,08,14,01,41,13.80
2020,08,14,01,42,13.80
2020,08,14,01,43,13.80
2020,08,14,01,44,13.80
2020,08,14,01,45,13.80
2020,08,14,01,46,13.80
2020,08,14,01,47,13.80
2020,08,14,01,48,13.80
2020,08,14,01,49,13.80
2020,08,14,01,50,13.80
2020,08,14,01,51,13.80
2020,08,14,01,52,13.80
2020,08,14,01,53,13.80
2020,08,14,01,54,13.80
2020,08,14,01,55,13.70
2020,08,14,01,56,13.70
2020,08,14,01,57,13.70
2020,08,14,01,58,13.70
2020,08,14,01,59,13.70
2020,08,14,02,00,13.70
2020,08,14,02,01,13.70
2020,08,14,02,02,13.70
2020,08,14,02,03,13.70
2020,08,14,02,04,13.70
2020,08,14,02,05,13.60
2020,08,14,02,06,13.60
2020,08,14,02,07,13.60
2020,08,14,02,08,13.60
2020,08,14,02,09,13.50
2020,08,14,02,10,13.50
2020,08,14,02,11,13.50
2020,08,14,02,12,13.50
2020,08,14,02,13,13.40
2020,08,14,02,14,13.40
2020,08,14,02,15,13.40
2020,08,14,02,16,13.30
2020,08,14,02,17,13.30
2020,08,14,02,18,13.30
2020,08,14,02,19,13.30
2020,08,14,02,20,13.30
2020,08,14,02,21,13.30
2020,08,14,02,22,13.30
2020,08,14,02,23,13.30
2020,08,14,02,24,13.30
2020,08,14,02,25,13.20
2020,08,14,02,26,13.20
2020,08,14,02,27,13.20
2020,08,14,02,28,13.20
2020,08,14,02,29,13.20
2020,08,14,02,30,13.20
2020,08,14,02,31,13.10
2020,08,14,02,32,13.10
2020,08,14,02,33,13.10
2020,08,14,02,34,13.10
2020,08,14,02,35,13.00
2020,08,14,02,36,13.00
2020,08,14,02,37,13.00
2020,08,14,02,38,13.00
2020,08,14,02,39,13.00
2020,08,14,02,40,12.90
2020,08,14,02,41,12.90
2020,08,14,02,42,12.90
2020,08,14,02,44,12.90
2020,08,14,02,46,12.90
2020,08,14,02,47,12.90
2020,08,14,02,48,12.90
2020,08,14,02,49,12.90
2020,08,14,02,51,12.90
2020,08,14,02,52,12.90
2020,08,14,02,53,12.90
2020,08,14,02,54,12.90
2020,08,14,02,56,12.90
2020,08,14,02,57,12.90
2020,08,14,02,58,12.90
2020,08,14,02,59,12.90
2020,08,14,03,01,12.90
2020,08,14,03,02,12.90
2020,08,14,03,03,13.00
2020,08,14,03,04,13.00
2020,08,14,03,06,13.00
2020,08,14,03,07,13.00
2020,08,14,03,08,13.00
2020,08,14,03,09,13.00
2020,08,14,03,11,13.00
2020,08,14,03,12,13.00
2020,08,14,03,13,13.00
2020,08,14,03,14,13.00
2020,08,14,03,16,13.00
2020,08,14,03,17,12.90
2020,08,14,03,18,12.90
2020,08,14,03,19,12.90
2020,08,14,03,21,12.90
2020,08,14,03,22,12.90
2020,08,14,03,23,12.90
2020,08,14,03,24,12.90
2020,08,14,03,25,12.90
2020,08,14,03,26,12.90
2020,08,14,03,27,12.90
2020,08,14,03,28,12.90
2020,08,14,03,29,12.90
2020,08,14,03,30,12.90
2020,08,14,03,31,12.90
2020,08,14,03,32,12.90
2020,08,14,03,33,12.90
2020,08,14,03,34,12.90
2020,08,14,03,36,12.90
2020,08,14,03,37,12.90
2020,08,14,03,38,12.90
2020,08,14,03,39,12.90
2020,08,14,03,40,12.90
2020,08,14,03,41,12.90
2020,08,14,03,42,12.80
2020,08,14,03,43,12.80
2020,08,14,03,44,12.80
2020,08,14,03,45,12.80
2020,08,14,03,46,12.80
2020,08,14,03,47,12.80
2020,08,14,03,48,12.80
2020,08,14,03,49,12.90
2020,08,14,03,51,12.90
2020,08,14,03,52,12.90
2020,08,14,03,53,12.90
2020,08,14,03,54,12.90
2020,08,14,03,55,12.90
2020,08,14,03,56,12.90
2020,08,14,03,57,12.90
2020,08,14,03,58,12.90
2020,08,14,03,59,12.90
2020,08,14,04,00,12.90
2020,08,14,04,01,12.80
2020,08,14,04,02,12.80
2020,08,14,04,03,12.80
2020,08,14,04,04,12.80
2020,08,14,04,05,12.80
2020,08,14,04,06,12.80
2020,08,14,04,07,12.80
2020,08,14,04,08,12.80
2020,08,14,04,09,12.80
2020,08,14,04,10,12.70
2020,08,14,04,11,12.70
2020,08,14,04,12,12.70
2020,08,14,04,13,12.60
2020,08,14,04,14,12.60
2020,08,14,04,15,12.60
2020,08,14,04,16,12.60
2020,08,14,04,17,12.50
2020,08,14,04,18,12.50
2020,08,14,04,19,12.50
2020,08,14,04,20,12.40
2020,08,14,04,21,12.40
2020,08,14,04,22,12.40
2020,08,14,04,23,12.40
2020,08,14,04,24,12.30
2020,08,14,04,25,12.30
2020,08,14,04,26,12.30
2020,08,14,04,27,12.30
2020,08,14,04,28,12.30
2020,08,14,04,29,12.30
2020,08,14,04,30,12.30
2020,08,14,04,31,12.30
2020,08,14,04,32,12.30
2020,08,14,04,33,12.30
2020,08,14,04,34,12.30
2020,08,14,04,35,12.30
2020,08,14,04,36,12.30
2020,08,14,04,37,12.30
2020,08,14,04,38,12.30
2020,08,14,04,39,12.30
2020,08,14,04,40,12.30
2020,08,14,04,41,12.30
2020,08,14,04,42,12.30
2020,08,14,04,43,12.30
2020,08,14,04,44,12.30
2020,08,14,04,45,12.30
2020,08,14,04,46,12.30
2020,08,14,04,47,12.30
2020,08,14,04,48,12.30
2020,08,14,04,49,12.20
2020,08,14,04,50,12.20
2020,08,14,04,51,12.20
2020,08,14,04,52,12.20
2020,08,14,04,53,12.10
2020,08,14,04,54,12.10
2020,08,14,04,55,12.10
2020,08,14,04,56,12.10
2020,08,14,04,57,12.00
2020,08,14,04,58,12.00
2020,08,14,04,59,12.00
2020,08,14,05,00,12.00
2020,08,14,05,01,11.90
2020,08,14,05,02,11.90
2020,08,14,05,03,11.90
2020,08,14,05,04,11.90
2020,08,14,05,05,11.90
2020,08,14,05,06,11.90
2020,08,14,05,07,11.80
2020,08,14,05,08,11.80
2020,08,14,05,09,11.80
2020,08,14,05,10,11.80
2020,08,14,05,11,11.80
2020,08,14,05,12,11.80
2020,08,14,05,13,11.80
2020,08,14,05,14,11.80
2020,08,14,05,15,11.80
2020,08,14,05,16,11.80
2020,08,14,05,17,11.80
2020,08,14,05,18,11.80
2020,08,14,05,19,11.80
2020,08,14,05,20,11.80
2020,08,14,05,21,11.80
2020,08,14,05,22,11.80
2020,08,14,05,23,11.80
2020,08,14,05,24,11.80
2020,08,14,05,25,11.70
2020,08,14,05,26,11.70
2020,08,14,05,27,11.70
2020,08,14,05,28,11.70
2020,08,14,05,29,11.70
2020,08,14,05,30,11.70
2020,08,14,05,31,11.70
2020,08,14,05,32,11.60
2020,08,14,05,33,11.60
2020,08,14,05,34,11.60
2020,08,14,05,35,11.60
2020,08,14,05,36,11.60
2020,08,14,05,38,11.60
2020,08,14,05,39,11.60
2020,08,14,05,41,11.60
2020,08,14,05,42,11.60
2020,08,14,05,43,11.60
2020,08,14,05,44,11.60
2020,08,14,05,46,11.60
2020,08,14,05,47,11.60
2020,08,14,05,48,11.60
2020,08,14,05,49,11.60
2020,08,14,05,51,11.60
2020,08,14,05,52,11.60
2020,08,14,05,53,11.60
2020,08,14,05,54,11.60
2020,08,14,05,56,11.60
2020,08,14,05,57,11.60
2020,08,14,05,58,11.60
2020,08,14,05,59,11.60
2020,08,14,06,01,11.60
2020,08,14,06,02,11.60
2020,08,14,06,03,11.60
2020,08,14,06,04,11.60
2020,08,14,06,06,11.60
2020,08,14,06,07,11.60
2020,08,14,06,08,11.60
2020,08,14,06,09,11.60
2020,08,14,06,11,11.60
2020,08,14,06,12,11.60
2020,08,14,06,13,11.60
2020,08,14,06,14,11.60
2020,08,14,06,16,11.60
2020,08,14,06,17,11.60
2020,08,14,06,18,11.60
2020,08,14,06,19,11.60
2020,08,14,06,21,11.60
2020,08,14,06,22,11.60
2020,08,14,06,23,11.60
2020,08,14,06,24,11.60
2020,08,14,06,26,11.60
2020,08,14,06,27,11.60
2020,08,14,06,28,11.60
2020,08,14,06,29,11.60
2020,08,14,06,30,11.60
2020,08,14,06,32,11.60
2020,08,14,06,33,11.60
2020,08,14,06,34,11.60
2020,08,14,06,36,11.60
2020,08,14,06,37,11.70
2020,08,14,06,38,11.70
2020,08,14,06,39,11.70
2020,08,14,06,41,11.70
2020,08,14,06,42,11.70
2020,08,14,06,43,11.70
2020,08,14,06,44,11.80
2020,08,14,06,46,11.80
2020,08,14,06,47,11.80
2020,08,14,06,48,11.80
2020,08,14,06,49,11.80
2020,08,14,06,51,11.80
2020,08,14,06,52,11.90
2020,08,14,06,53,11.90
2020,08,14,06,54,11.90
2020,08,14,06,55,12.00
2020,08,14,06,56,12.00
2020,08,14,06,57,12.00
2020,08,14,06,58,12.00
2020,08,14,06,59,12.10
2020,08,14,07,00,12.10
2020,08,14,07,01,12.10
2020,08,14,07,02,12.20
2020,08,14,07,03,12.20
2020,08,14,07,04,12.20
2020,08,14,07,06,12.30
2020,08,14,07,07,12.30
2020,08,14,07,08,12.30
2020,08,14,07,09,12.30
2020,08,14,07,10,12.30
2020,08,14,07,11,12.40
2020,08,14,07,12,12.40
2020,08,14,07,13,12.40
2020,08,14,07,14,12.40
2020,08,14,07,15,12.50
2020,08,14,07,16,12.50
2020,08,14,07,17,12.50
2020,08,14,07,18,12.50
2020,08,14,07,19,12.50
2020,08,14,07,20,12.60
2020,08,14,07,21,12.60
2020,08,14,07,22,12.60
2020,08,14,07,23,12.70
2020,08,14,07,24,12.70
2020,08,14,07,25,12.70
2020,08,14,07,26,12.80
2020,08,14,07,27,12.80
2020,08,14,07,28,12.80
2020,08,14,07,29,12.80
2020,08,14,07,30,12.80
2020,08,14,07,31,12.80
2020,08,14,07,32,12.80
2020,08,14,07,33,12.80
2020,08,14,07,34,12.90
2020,08,14,07,35,12.90
2020,08,14,07,36,12.90
2020,08,14,07,37,12.90
2020,08,14,07,38,13.00
2020,08,14,07,39,13.00
2020,08,14,07,40,13.00
2020,08,14,07,41,13.00
2020,08,14,07,42,13.00
2020,08,14,07,43,13.10
2020,08,14,07,44,13.10
2020,08,14,07,45,13.10
2020,08,14,07,46,13.10
2020,08,14,07,47,13.10
2020,08,14,07,48,13.10
2020,08,14,07,49,13.20
2020,08,14,07,50,13.20
2020,08,14,07,51,13.20
2020,08,14,07,52,13.20
2020,08,14,07,53,13.20
2020,08,14,07,54,13.30
2020,08,14,07,55,13.30
2020,08,14,07,56,13.30
2020,08,14,07,57,13.30
2020,08,14,07,58,13.30
2020,08,14,07,59,13.30
2020,08,14,08,00,13.40
2020,08,14,08,01,13.40
2020,08,14,08,02,13.50
2020,08,14,08,03,13.50
2020,08,14,08,04,13.50
2020,08,14,08,05,13.60
2020,08,14,08,06,13.60
2020,08,14,08,07,13.60
2020,08,14,08,08,13.70
2020,08,14,08,09,13.70
2020,08,14,08,10,13.70
2020,08,14,08,11,13.70
2020,08,14,08,12,13.70
2020,08,14,08,13,13.80
2020,08,14,08,14,13.80
2020,08,14,08,15,13.90
2020,08,14,08,16,14.00
2020,08,14,08,17,14.10
2020,08,14,08,18,14.10
2020,08,14,08,19,14.20
2020,08,14,08,20,14.20
2020,08,14,08,21,14.30
2020,08,14,08,22,14.40
2020,08,14,08,23,14.40
2020,08,14,08,24,14.50
2020,08,14,08,25,14.50
2020,08,14,08,26,14.50
2020,08,14,08,27,14.60
2020,08,14,08,28,14.60
2020,08,14,08,29,14.60
2020,08,14,08,30,14.70
2020,08,14,08,31,14.70
2020,08,14,08,32,14.70
2020,08,14,08,33,14.80
2020,08,14,08,34,14.80
2020,08,14,08,35,14.80
2020,08,14,08,36,14.80
2020,08,14,08,37,14.80
2020,08,14,08,38,14.80
2020,08,14,08,39,14.90
2020,08,14,08,40,14.90
2020,08,14,08,41,14.90
2020,08,14,08,42,14.90
2020,08,14,08,43,14.90
2020,08,14,08,44,15.00
2020,08,14,08,45,15.00
2020,08,14,08,46,15.00
2020,08,14,08,47,15.10
2020,08,14,08,48,15.10
2020,08,14,08,49,15.10
2020,08,14,08,50,15.10
2020,08,14,08,51,15.10
2020,08,14,08,52,15.20
2020,08,14,08,53,15.20
2020,08,14,08,54,15.20
2020,08,14,08,55,15.20
2020,08,14,08,56,15.30
2020,08,14,08,57,15.30
2020,08,14,08,58,15.30
2020,08,14,08,59,15.30
2020,08,14,09,00,15.30
2020,08,14,09,01,15.30
2020,08,14,09,02,15.40
2020,08,14,09,03,15.40
2020,08,14,09,04,15.40
2020,08,14,09,05,15.40
2020,08,14,09,06,15.50
2020,08,14,09,07,15.50
2020,08,14,09,09,15.50
2020,08,14,09,10,15.60
2020,08,14,09,12,15.60
2020,08,14,09,13,15.60
2020,08,14,09,14,15.70
2020,08,14,09,16,15.80
2020,08,14,09,17,15.80
2020,08,14,09,18,15.80
2020,08,14,09,19,15.80
2020,08,14,09,21,15.80
2020,08,14,09,22,15.90
2020,08,14,09,23,15.90
2020,08,14,09,24,15.90
2020,08,14,09,26,16.10
2020,08,14,09,27,16.10
2020,08,14,09,28,16.10
2020,08,14,09,29,16.20
2020,08,14,09,31,16.30
2020,08,14,09,32,16.30
2020,08,14,09,33,16.40
2020,08,14,09,34,16.40
2020,08,14,09,36,16.70
2020,08,14,09,37,16.70
2020,08,14,09,38,16.80
2020,08,14,09,39,16.90
2020,08,14,09,41,17.10
2020,08,14,09,42,17.20
2020,08,14,09,43,17.30
2020,08,14,09,44,17.30
2020,08,14,09,46,17.30
2020,08,14,09,47,17.30
2020,08,14,09,48,17.30
2020,08,14,09,49,17.30
2020,08,14,09,51,17.40
2020,08,14,09,52,17.50
2020,08,14,09,53,17.50
2020,08,14,09,54,17.60
2020,08,14,09,56,17.70
2020,08,14,09,57,17.80
2020,08,14,09,58,17.90
2020,08,14,09,59,17.90
2020,08,14,10,01,18.10
2020,08,14,10,02,18.20
2020,08,14,10,03,18.20
2020,08,14,10,04,18.20
2020,08,14,10,06,18.30
2020,08,14,10,07,18.30
2020,08,14,10,08,18.40
2020,08,14,10,09,18.50
2020,08,14,10,11,18.60
2020,08,14,10,12,18.70
2020,08,14,10,13,18.70
2020,08,14,10,14,18.80
2020,08,14,10,16,18.90
2020,08,14,10,17,18.90
2020,08,14,10,18,18.90
2020,08,14,10,19,18.90
2020,08,14,10,21,18.80
2020,08,14,10,22,18.70
2020,08,14,10,23,18.60
2020,08,14,10,24,18.40
2020,08,14,10,26,18.20
2020,08,14,10,27,18.10
2020,08,14,10,28,18.10
2020,08,14,10,29,18.10
2020,08,14,10,30,18.10
2020,08,14,10,31,18.10
2020,08,14,10,32,18.10
2020,08,14,10,33,18.20
2020,08,14,10,34,18.20
2020,08,14,10,36,18.20
2020,08,14,10,37,18.30
2020,08,14,10,38,18.40
2020,08,14,10,39,18.40
2020,08,14,10,40,18.40
2020,08,14,10,41,18.40
2020,08,14,10,42,18.40
2020,08,14,10,43,18.50
2020,08,14,10,44,18.50
2020,08,14,10,45,18.60
2020,08,14,10,46,18.60
2020,08,14,10,47,18.60
2020,08,14,10,48,18.70
2020,08,14,10,49,18.70
2020,08,14,10,50,18.70
2020,08,14,10,51,18.60
2020,08,14,10,52,18.60
2020,08,14,10,53,18.60
2020,08,14,10,54,18.70
2020,08,14,10,55,18.70
2020,08,14,10,56,18.70
2020,08,14,10,57,18.80
2020,08,14,10,58,18.90
2020,08,14,10,59,18.90
2020,08,14,11,00,18.80
2020,08,14,11,01,18.80
2020,08,14,11,02,18.80
2020,08,14,11,03,18.90
2020,08,14,11,04,18.90
2020,08,14,11,05,18.90
2020,08,14,11,06,18.90
2020,08,14,11,07,18.90
2020,08,14,11,08,19.10
2020,08,14,11,09,19.10
2020,08,14,11,10,19.10
2020,08,14,11,11,19.20
2020,08,14,11,12,19.20
2020,08,14,11,13,19.30
2020,08,14,11,14,19.40
2020,08,14,11,15,19.40
2020,08,14,11,16,19.40
2020,08,14,11,17,19.50
2020,08,14,11,18,19.60
2020,08,14,11,19,19.60
2020,08,14,11,20,19.50
2020,08,14,11,21,19.50
2020,08,14,11,22,19.50
2020,08,14,11,23,19.50
2020,08,14,11,24,19.50
2020,08,14,11,25,19.50
2020,08,14,11,26,19.60
2020,08,14,11,27,19.70
2020,08,14,11,28,19.80
2020,08,14,11,29,19.90
2020,08,14,11,30,19.90
2020,08,14,11,31,19.90
2020,08,14,11,32,19.90
2020,08,14,11,33,20.10
2020,08,14,11,34,20.20
2020,08,14,11,35,20.20
2020,08,14,11,36,20.20
2020,08,14,11,37,20.30
2020,08,14,11,38,20.30
2020,08,14,11,39,20.40
2020,08,14,11,40,20.40
2020,08,14,11,41,20.50
2020,08,14,11,42,20.50
2020,08,14,11,43,20.50
2020,08,14,11,44,20.50
2020,08,14,11,45,20.50
2020,08,14,11,46,20.50
2020,08,14,11,47,20.50
2020,08,14,11,48,20.50
2020,08,14,11,49,20.50
2020,08,14,11,50,20.50
2020,08,14,11,51,20.50
2020,08,14,11,52,20.40
2020,08,14,11,53,20.30
2020,08,14,11,54,20.20
2020,08,14,11,55,20.10
2020,08,14,11,56,20.10
2020,08,14,11,57,20.10
2020,08,14,11,58,20.10
2020,08,14,11,59,20.20
2020,08,14,12,00,20.20
2020,08,14,12,01,20.20
2020,08,14,12,02,20.20
2020,08,14,12,03,20.30
2020,08,14,12,04,20.30
2020,08,14,12,05,20.40
2020,08,14,12,06,20.50
2020,08,14,12,07,20.50
2020,08,14,12,08,20.60
2020,08,14,12,09,20.70
2020,08,14,12,10,20.70
2020,08,14,12,11,20.80
2020,08,14,12,12,20.90
2020,08,14,12,13,20.90
2020,08,14,12,14,21.00
2020,08,14,12,15,21.00
2020,08,14,12,16,21.10
2020,08,14,12,17,21.10
2020,08,14,12,18,21.10
2020,08,14,12,19,21.10
2020,08,14,12,20,21.10
2020,08,14,12,21,21.20
2020,08,14,12,22,21.20
2020,08,14,12,23,21.20
2020,08,14,12,24,21.30
2020,08,14,12,25,21.30
2020,08,14,12,26,21.30
2020,08,14,12,27,21.30
2020,08,14,12,28,21.30
2020,08,14,12,29,21.30
2020,08,14,12,30,21.40
2020,08,14,12,32,21.60
2020,08,14,12,33,21.60
2020,08,14,12,34,21.60
2020,08,14,12,35,21.70
2020,08,14,12,36,21.80
2020,08,14,12,37,21.90
2020,08,14,12,38,21.90
2020,08,14,12,39,22.00
2020,08,14,12,41,22.10
2020,08,14,12,42,22.10
2020,08,14,13,29,22.10
2020,08,14,13,30,22.10
2020,08,14,13,31,22.10
2020,08,14,13,32,22.10
2020,08,14,13,33,22.10
2020,08,14,13,34,22.00
2020,08,14,13,35,21.90
2020,08,14,13,36,21.80
2020,08,14,13,37,21.80
2020,08,14,13,38,21.70
2020,08,14,13,39,21.70
2020,08,14,13,40,21.70
2020,08,14,13,41,21.70
2020,08,14,13,42,21.60
2020,08,14,13,43,21.60
2020,08,14,13,44,21.60
2020,08,14,13,45,21.40
2020,08,14,13,46,21.40
2020,08,14,13,47,21.40
2020,08,14,13,48,21.40
2020,08,14,13,49,21.40
2020,08,14,13,50,21.40
2020,08,14,13,51,21.40
2020,08,14,13,52,21.40
2020,08,14,13,53,21.60
2020,08,14,13,54,21.60
2020,08,14,13,55,21.60
2020,08,14,13,56,21.60
2020,08,14,13,58,21.70
2020,08,14,13,59,21.70
2020,08,14,14,29,21.60
2020,08,14,14,30,21.60
2020,08,14,14,31,21.60
2020,08,14,14,32,21.40
2020,08,14,14,33,21.40
2020,08,14,14,34,21.40
2020,08,14,14,35,21.40
2020,08,14,14,36,21.40
2020,08,14,14,37,21.40
2020,08,14,14,38,21.40
2020,08,14,14,39,21.40
2020,08,14,14,40,21.40
2020,08,14,14,41,21.40
2020,08,14,14,42,21.60
2020,08,14,14,43,21.60
2020,08,14,14,44,21.60
2020,08,14,14,45,21.70
2020,08,14,14,46,21.70
2020,08,14,14,47,21.80
2020,08,14,14,48,21.80
2020,08,14,14,49,21.90
2020,08,14,14,50,21.90
2020,08,14,14,51,22.00
2020,08,14,14,52,22.10
2020,08,14,14,53,22.20
2020,08,14,14,54,22.20
2020,08,14,14,55,22.20
2020,08,14,14,57,22.20
2020,08,14,14,58,22.20
2020,08,14,14,59,22.10
2020,08,14,15,01,22.00
2020,08,14,15,02,22.00
2020,08,14,15,03,21.90
2020,08,14,15,04,21.90
2020,08,14,15,06,21.80
2020,08,14,15,07,21.80
2020,08,14,15,08,21.80
2020,08,14,15,09,21.80
2020,08,14,15,11,21.80
2020,08,14,15,12,21.80
2020,08,14,15,13,21.80
2020,08,14,15,14,21.70
2020,08,14,15,16,21.70
2020,08,14,15,17,21.70
2020,08,14,15,18,21.60
2020,08,14,15,19,21.60
2020,08,14,15,21,21.60
2020,08,14,15,22,21.60
2020,08,14,15,23,21.60
2020,08,14,15,24,21.60
2020,08,14,15,26,21.60
2020,08,14,15,27,21.60
2020,08,14,15,28,21.60
2020,08,14,15,29,21.70
2020,08,14,15,31,21.70
2020,08,14,15,32,21.80
2020,08,14,15,33,21.80
2020,08,14,15,34,21.80
2020,08,14,15,36,21.80
2020,08,14,15,37,21.80
2020,08,14,15,38,21.80
2020,08,14,15,39,21.80
2020,08,14,15,41,21.90
2020,08,14,15,42,21.90
2020,08,14,15,43,21.90
2020,08,14,15,44,21.90
2020,08,14,15,46,21.90
2020,08,14,15,47,21.90
2020,08,14,15,48,21.90
2020,08,14,15,49,21.90
2020,08,14,15,51,21.80
2020,08,14,15,52,21.80
2020,08,14,15,53,21.80
2020,08,14,15,54,21.80
2020,08,14,15,56,21.80
2020,08,14,15,57,21.80
2020,08,14,15,58,21.80
2020,08,14,15,59,21.80
2020,08,14,16,01,21.80
2020,08,14,16,02,21.80
2020,08,14,16,03,21.80
2020,08,14,16,04,21.80
2020,08,14,16,06,21.80
2020,08,14,16,07,21.80
2020,08,14,16,08,21.90
2020,08,14,16,09,21.90
2020,08,14,16,10,21.90
2020,08,14,16,11,21.90
2020,08,14,16,12,21.90
2020,08,14,16,13,21.90
2020,08,14,16,14,21.80
2020,08,14,16,15,21.80
2020,08,14,16,16,21.80
2020,08,14,16,17,21.70
2020,08,14,16,18,21.70
2020,08,14,16,19,21.60
2020,08,14,16,20,21.60
2020,08,14,16,21,21.60
2020,08,14,16,22,21.60
2020,08,14,16,23,21.60
2020,08,14,16,24,21.60
2020,08,14,16,25,21.70
2020,08,14,16,26,21.70
2020,08,14,16,27,21.70
2020,08,14,16,28,21.80
2020,08,14,16,29,21.80
2020,08,14,16,30,21.80
2020,08,14,16,31,21.80
2020,08,14,16,32,21.90
2020,08,14,16,33,21.90
2020,08,14,16,34,21.90
2020,08,14,16,35,21.90
2020,08,14,16,36,21.90
2020,08,14,16,37,21.90
2020,08,14,16,38,21.90
2020,08,14,16,39,22.00
2020,08,14,16,40,21.90
2020,08,14,16,41,21.90
2020,08,14,16,42,21.90
2020,08,14,16,43,21.80
2020,08,14,16,44,21.70
2020,08,14,16,45,21.60
2020,08,14,16,46,21.60
2020,08,14,16,47,21.40
2020,08,14,16,48,21.30
2020,08,14,16,49,21.30
2020,08,14,16,50,21.30
2020,08,14,16,51,21.20
2020,08,14,16,52,21.20
2020,08,14,16,53,21.10
2020,08,14,16,54,21.10
2020,08,14,16,55,21.10
2020,08,14,16,56,21.10
2020,08,14,16,57,21.20
2020,08,14,16,58,21.20
2020,08,14,16,59,21.20
2020,08,14,17,00,21.30
2020,08,14,17,01,21.30
2020,08,14,17,02,21.30
2020,08,14,17,03,21.30
2020,08,14,17,04,21.30
2020,08,14,17,05,21.30
2020,08,14,17,06,21.30
2020,08,14,17,07,21.30
2020,08,14,17,08,21.30
2020,08,14,17,09,21.30
2020,08,14,17,10,21.30
2020,08,14,17,11,21.30
2020,08,14,17,12,21.30
2020,08,14,17,13,21.30
2020,08,14,17,14,21.30
2020,08,14,17,15,21.40
2020,08,14,17,16,21.60
2020,08,14,17,17,21.60
2020,08,14,17,18,21.60
2020,08,14,17,19,21.60
2020,08,14,17,20,21.70
2020,08,14,17,21,21.70
2020,08,14,17,22,21.80
2020,08,14,17,23,21.80
2020,08,14,17,24,21.90
2020,08,14,17,25,21.90
2020,08,14,17,26,21.90
2020,08,14,17,27,22.00
2020,08,14,17,28,22.00
2020,08,14,17,29,22.00
2020,08,14,17,30,22.10
2020,08,14,17,31,22.10
2020,08,14,17,32,22.10
2020,08,14,17,33,22.10
2020,08,14,17,34,22.10
2020,08,14,17,35,22.10
2020,08,14,17,36,22.10
2020,08,14,17,37,22.10
2020,08,14,17,38,22.10
2020,08,14,17,39,22.10
2020,08,14,17,40,22.10
2020,08,14,17,41,22.10
2020,08,14,17,42,22.20
2020,08,14,17,43,22.30
2020,08,14,17,44,22.30
2020,08,14,17,45,22.40
2020,08,14,17,46,22.40
2020,08,14,17,47,22.50
2020,08,14,17,48,22.60
2020,08,14,17,49,22.60
2020,08,14,17,50,22.70
2020,08,14,17,51,22.70
2020,08,14,17,52,22.80
2020,08,14,17,53,22.80
2020,08,14,17,54,22.80
2020,08,14,17,55,22.80
2020,08,14,17,56,22.70
2020,08,14,17,57,22.70
2020,08,14,17,58,22.70
2020,08,14,17,59,22.60
2020,08,14,18,00,22.60
2020,08,14,18,01,22.60
2020,08,14,18,02,22.50
2020,08,14,18,03,22.50
2020,08,14,18,04,22.40
2020,08,14,18,05,22.40
2020,08,14,18,06,22.40
2020,08,14,18,07,22.40
2020,08,14,18,08,22.40
2020,08,14,18,09,22.40
2020,08,14,18,10,22.50
2020,08,14,18,11,22.50
2020,08,14,18,12,22.50
2020,08,14,18,13,22.50
2020,08,14,18,14,22.50
2020,08,14,18,15,22.50
2020,08,14,18,16,22.50
2020,08,14,18,17,22.50
2020,08,14,18,18,22.60
2020,08,14,18,19,22.60
2020,08,14,18,21,22.50
2020,08,14,18,22,22.50
2020,08,14,18,23,22.50
2020,08,14,18,24,22.50
2020,08,14,18,26,22.40
2020,08,14,18,27,22.40
2020,08,14,18,28,22.30
2020,08,14,18,29,22.30
2020,08,14,18,30,22.20
2020,08,14,18,32,22.20
2020,08,14,18,33,22.20
2020,08,14,18,34,22.20
2020,08,14,18,36,22.20
2020,08,14,18,37,22.20
2020,08,14,18,38,22.10
2020,08,14,18,39,22.10
2020,08,14,18,41,22.10
2020,08,14,18,42,22.10
2020,08,14,18,43,22.00
2020,08,14,18,44,22.00
2020,08,14,18,46,21.90
2020,08,14,18,47,21.90
2020,08,14,18,48,21.80
2020,08,14,18,49,21.80
2020,08,14,18,51,21.80
2020,08,14,18,52,21.80
2020,08,14,18,53,21.80
2020,08,14,18,54,21.80
2020,08,14,18,56,21.80
2020,08,14,18,57,21.80
2020,08,14,18,58,21.80
2020,08,14,18,59,21.80
2020,08,14,19,01,21.70
2020,08,14,19,02,21.60
2020,08,14,19,03,21.60
2020,08,14,19,04,21.60
2020,08,14,19,06,21.40
2020,08,14,19,07,21.30
2020,08,14,19,08,21.30
2020,08,14,19,09,21.30
2020,08,14,19,11,21.10
2020,08,14,19,12,21.10
2020,08,14,19,13,21.00
2020,08,14,19,14,21.00
2020,08,14,19,16,20.90
2020,08,14,19,17,20.90
2020,08,14,19,18,20.80
2020,08,14,19,19,20.80
2020,08,14,19,21,20.70
2020,08,14,19,22,20.70
2020,08,14,19,23,20.70
2020,08,14,19,24,20.70
2020,08,14,19,25,20.60
2020,08,14,19,26,20.60
2020,08,14,19,27,20.60
2020,08,14,19,28,20.60
2020,08,14,19,29,20.50
2020,08,14,19,30,20.50
2020,08,14,19,31,20.50
2020,08,14,19,32,20.50
2020,08,14,19,33,20.40
2020,08,14,19,34,20.40
2020,08,14,19,36,20.40
2020,08,14,19,37,20.30
2020,08,14,19,38,20.30
2020,08,14,19,39,20.30
2020,08,14,19,40,20.20
2020,08,14,19,41,20.20
2020,08,14,19,42,20.20
2020,08,14,19,43,20.20
2020,08,14,19,44,20.10
2020,08,14,19,45,19.90
2020,08,14,19,46,19.90
2020,08,14,19,47,19.90
2020,08,14,19,48,19.80
2020,08,14,19,49,19.70
2020,08,14,19,50,19.60
2020,08,14,19,51,19.50
2020,08,14,19,52,19.50
2020,08,14,19,53,19.40
2020,08,14,19,54,19.30
2020,08,14,19,55,19.30
2020,08,14,19,56,19.20
2020,08,14,19,57,19.20
2020,08,14,19,58,19.10
2020,08,14,19,59,19.10
2020,08,14,20,00,19.10
2020,08,14,20,01,19.10